Regional Weather Roundup
Issued by NWS Midland/Odessa, TX

Home | Current Version | Previous Version | Text Only | Print | Product List | Glossary On
Versions: 1 2 3 4 5 6 7 8 9 10 11 12 13 14 15 16 17 18 19 20 21 22 23 24 25 26 27 28 29 30 31 32 33 34 35 36 37 38 39 40 41 42 43 44 45 46 47 48 49 50
000
ASUS44 KMAF 290510
RWRMAF
MIDLAND AREA WEATHER ROUNDUP
NATIONAL WEATHER SERVICE MIDLAND TX
1200 AM CDT FRI APR 29 2016

...IN SOUTHWEST TEXAS AND SOUTHEAST NEW MEXICO...

CITY           SKY/WX    TMP DP  RH WIND       PRES   REMARKS
ALPINE         CLEAR     67  52  59 SE6       29.81S
ANDREWS        FAIR      70  57  63 SE12G20   29.72F
ARTESIA        CLEAR     59  16  18 S9        29.70R
BIG SPRING     CLEAR     70  59  67 SE16      29.75S
CARLSBAD       CLEAR     63  33  32 CALM      29.65F
DRYDEN           N/A     75  68  78 E20G29    29.68F
FORT STOCKTON  CLEAR     72  62  71 SE24G36   29.68F
GUAD PASS      CLEAR     65  12  12 W23       29.80S
HOBBS          CLEAR     68  54  60 SE17G23   29.71F
MARFA          CLEAR     63  50  62 SE10      29.78F
MIDLAND AIRPK  CLEAR     72  59  62 SE13      29.72F
MIDLAND INTL   CLEAR     71  58  63 SE12      29.71F
ODESSA         CLEAR     73  59  61 SE16      29.71F
PECOS          CLEAR     74  59  58 SE16G24   29.61F
PRESIDIO       FAIR      77  13   9 CALM      29.65R
SEMINOLE       CLEAR     69  56  62 SE15      29.72F
SNYDER           N/A     70  61  73 SE14      29.76F
WINK           CLEAR     73  58  59 SE16      29.64F
$$
...OTHER STATIONS IN TEXAS...

CITY           SKY/WX    TMP DP  RH WIND       PRES   REMARKS
ABILENE        CLEAR     70  62  76 SE18      29.75F
AMARILLO       CLOUDY    57  52  83 E23G30    29.83S
AUSTIN         CLOUDY    76  72  87 SE7       29.78R
BROWNSVILLE    CLOUDY    80  77  90 SE8       29.72F
CORPUS CHRISTI MOCLDY    78  75  90 SE10      29.74F
DALLAS FTW     CLOUDY    77  58  51 E13G24    29.77F THUNDER
DEL RIO        CLOUDY    77  72  84 E13       29.67F HAZE
EL PASO        CLEAR     70  26  19 SW16      29.74R
HOUSTON INT    CLOUDY    76  74  93 SE9       29.83R
LUBBOCK        PTCLDY    68  55  63 SE21      29.75R
SAN ANGELO     PTCLDY    72  66  81 E8        29.73S
SAN ANTONIO    CLOUDY    75  71  87 SE13      29.77S
WACO           CLOUDY    76  71  85 SE16      29.76F
WICHITA FALLS  NOT AVBL
$$
...OTHER LOCATIONS IN NEW MEXICO...

CITY           SKY/WX    TMP DP  RH WIND       PRES   REMARKS
ALAMAGORDO     CLEAR     61  21  21 S8        29.73R
ALBUQUERQUE    CLOUDY    62  10  13 NW16      29.76R
CANNON AFB     PTCLDY    58  53  82 E14       29.74F
CLOVIS         CLEAR     55  48  76 E16       29.76F
HOLLOMAN AFB   CLEAR     62  20  20 S5        29.71R
ROSWELL        CLEAR     55  19  24 CALM      29.66S
RUIDOSO          N/A     50  18  27 W13       29.85F
SANTA FE       CLOUDY    56  35  45 SE23G33   29.78R
TRUTH OR CONSE PTCLDY    63  21  20 W14       29.75R
TUCUMCARI      MOCLDY    54  48  80 NE18      29.77R
$$




USA.gov is the U.S. government's official web portal to all federal, state and local government web resources and services.